TimeAEST,TemperatureF,Dew PointF,Humidity,Sea Level PressureIn,VisibilityMPH,Wind Direction,Wind SpeedMPH,Gust SpeedMPH,PrecipitationIn,Events,Conditions,WindDirDegrees,DateUTC
12:00 AM,76,71,79,29.81,,South,10.4,,,,,190,2013-03-11 14:00:00
12:00 AM,77.0,71.6,83,29.80,6.2,South,10.4,-,N/A,,Mostly Cloudy,190,2013-03-11 14:00:00
12:30 AM,75.2,69.8,83,29.80,6.2,South,13.8,-,N/A,,Mostly Cloudy,180,2013-03-11 14:30:00
1:00 AM,74,70,85,29.81,,South,10.4,,,,,180,2013-03-11 15:00:00
1:00 AM,73.4,69.8,88,29.80,5.0,South,10.4,-,N/A,,Mostly Cloudy,180,2013-03-11 15:00:00
1:30 AM,73.4,71.6,94,29.77,5.0,South,10.4,-,N/A,Rain,Light Rain Showers,170,2013-03-11 15:30:00
2:00 AM,73.4,71.6,94,29.77,6.2,South,8.1,-,N/A,,Mostly Cloudy,170,2013-03-11 16:00:00
2:30 AM,75.2,69.8,83,29.74,6.2,South,6.9,-,N/A,,Mostly Cloudy,190,2013-03-11 16:30:00
3:00 AM,75,72,87,29.75,,SSE,11.5,,,,Overcast,160,2013-03-11 17:00:00
3:00 AM,75.2,71.6,89,29.74,5.0,SSE,11.5,-,N/A,Rain,Light Rain Showers,160,2013-03-11 17:00:00
3:30 AM,75.2,71.6,89,29.74,6.2,SSE,6.9,-,N/A,,Mostly Cloudy,160,2013-03-11 17:30:00
4:00 AM,76,71,81,29.75,,South,9.2,,,,,180,2013-03-11 18:00:00
4:00 AM,75.2,71.6,89,29.74,6.2,South,9.2,-,N/A,,Mostly Cloudy,180,2013-03-11 18:00:00
4:30 AM,75.2,71.6,89,29.74,6.2,South,12.7,-,N/A,,Mostly Cloudy,180,2013-03-11 18:30:00
5:00 AM,75.2,71.6,89,29.74,6.2,South,12.7,-,N/A,,Partly Cloudy,170,2013-03-11 19:00:00
5:30 AM,75.2,69.8,83,29.74,6.2,South,12.7,-,N/A,,Partly Cloudy,180,2013-03-11 19:30:00
6:00 AM,76,70,78,29.77,12,South,12.7,,,,Scattered Clouds,170,2013-03-11 20:00:00
6:00 AM,75.2,69.8,83,29.77,6.2,South,12.7,-,N/A,,Partly Cloudy,170,2013-03-11 20:00:00
6:30 AM,75.2,69.8,83,29.74,6.2,South,10.4,-,N/A,,Partly Cloudy,170,2013-03-11 20:30:00
7:00 AM,76,71,79,29.77,,SSE,11.5,,,,,150,2013-03-11 21:00:00
7:00 AM,75.2,71.6,89,29.77,6.2,SSE,11.5,-,N/A,,Scattered Clouds,150,2013-03-11 21:00:00
7:30 AM,77.0,71.6,83,29.77,6.2,SSE,12.7,-,N/A,,Mostly Cloudy,160,2013-03-11 21:30:00
8:00 AM,77.0,71.6,83,29.77,3.1,SSE,10.4,-,N/A,Rain,Light Rain Showers,160,2013-03-11 22:00:00
8:30 AM,77.0,73.4,89,29.80,6.2,South,9.2,-,N/A,,Mostly Cloudy,170,2013-03-11 22:30:00
8:47 AM,77.0,73.4,89,29.80,3.1,SSE,8.1,-,N/A,Rain,Light Rain Showers,150,2013-03-11 22:47:00
9:00 AM,76,74,90,29.81,4,ESE,8.1,,,Rain,Light Rain Showers,110,2013-03-11 23:00:00
9:00 AM,75.2,73.4,94,29.80,6.2,ESE,8.1,-,N/A,Rain,Light Rain Showers,110,2013-03-11 23:00:00
9:25 AM,78.8,73.4,83,29.80,6.2,South,8.1,-,N/A,,Mostly Cloudy,170,2013-03-11 23:25:00
9:30 AM,78.8,73.4,83,29.80,6.2,South,9.2,-,N/A,,Mostly Cloudy,180,2013-03-11 23:30:00
10:00 AM,78,75,86,29.81,,ENE,6.9,,,,,70,2013-03-12 00:00:00
10:00 AM,78.8,75.2,89,29.80,6.2,ENE,6.9,-,N/A,,Mostly Cloudy,70,2013-03-12 00:00:00
10:30 AM,80.6,73.4,79,29.80,3.7,SE,15.0,27.6,N/A,,Mostly Cloudy,140,2013-03-12 00:30:00
11:00 AM,78.8,73.4,83,29.77,6.2,SSE,16.1,-,N/A,,Mostly Cloudy,160,2013-03-12 01:00:00
11:30 AM,84.2,73.4,70,29.77,6.2,SSE,18.4,-,N/A,,Mostly Cloudy,150,2013-03-12 01:30:00
12:00 PM,85,72,57,29.75,19,SSE,20.7,,,,Partly Cloudy,150,2013-03-12 02:00:00
12:00 PM,84.2,71.6,66,29.74,6.2,SSE,20.7,-,N/A,,Mostly Cloudy,150,2013-03-12 02:00:00
12:30 PM,80.6,73.4,79,29.74,6.2,SE,21.9,-,N/A,,Mostly Cloudy,140,2013-03-12 02:30:00
1:00 PM,84,72,58,29.74,,SE,20.7,,,,,130,2013-03-12 03:00:00
1:00 PM,84.2,71.6,66,29.74,6.2,SE,20.7,-,N/A,,Mostly Cloudy,130,2013-03-12 03:00:00
1:30 PM,80.6,71.6,74,29.71,6.2,SE,16.1,-,N/A,,Mostly Cloudy,130,2013-03-12 03:30:00
2:00 PM,78.8,71.6,78,29.71,6.2,SE,19.6,-,N/A,Rain,Light Rain Showers,130,2013-03-12 04:00:00
2:30 PM,78.8,71.6,78,29.71,6.2,SE,10.4,-,N/A,Rain,Light Rain Showers,130,2013-03-12 04:30:00
3:00 PM,78,72,75,29.71,6,SE,19.6,,,Rain,Light Rain Showers,130,2013-03-12 05:00:00
3:00 PM,77.0,71.6,83,29.71,6.2,SE,19.6,-,N/A,Rain,Light Rain Showers,130,2013-03-12 05:00:00
3:30 PM,80.6,71.6,74,29.68,6.2,SSE,15.0,-,N/A,,Mostly Cloudy,150,2013-03-12 05:30:00
4:00 PM,81,72,68,29.71,,ESE,18.4,,,,,120,2013-03-12 06:00:00
4:00 PM,80.6,71.6,74,29.68,6.2,ESE,18.4,-,N/A,,Mostly Cloudy,120,2013-03-12 06:00:00
4:30 PM,80.6,71.6,74,29.71,6.2,SE,13.8,-,N/A,,Mostly Cloudy,140,2013-03-12 06:30:00
5:00 PM,80.6,69.8,70,29.71,6.2,SSE,20.7,-,N/A,,Mostly Cloudy,150,2013-03-12 07:00:00
5:30 PM,80.6,69.8,70,29.71,6.2,SE,19.6,-,N/A,,Mostly Cloudy,140,2013-03-12 07:30:00
6:00 PM,80,71,67,29.72,16,SE,17.3,,,,Partly Cloudy,140,2013-03-12 08:00:00
6:00 PM,80.6,71.6,74,29.71,6.2,SE,17.3,-,N/A,,Mostly Cloudy,140,2013-03-12 08:00:00
6:30 PM,78.8,71.6,78,29.71,6.2,SE,18.4,-,N/A,,Mostly Cloudy,140,2013-03-12 08:30:00
7:00 PM,79,70,67,29.75,,SSE,13.8,,,,,160,2013-03-12 09:00:00
7:00 PM,78.8,69.8,74,29.74,6.2,SSE,13.8,-,N/A,,Mostly Cloudy,160,2013-03-12 09:00:00
7:30 PM,77.0,71.6,83,29.74,3.7,SSE,13.8,-,N/A,Rain,Light Rain Showers,150,2013-03-12 09:30:00
8:00 PM,77.0,69.8,78,29.77,5.0,South,10.4,-,N/A,Rain,Light Rain Showers,180,2013-03-12 10:00:00
8:30 PM,75.2,69.8,83,29.77,6.2,South,13.8,-,N/A,,Mostly Cloudy,180,2013-03-12 10:30:00
9:00 PM,75,71,83,29.78,7,South,11.5,,,Rain,Light Rain Showers,180,2013-03-12 11:00:00
9:00 PM,75.2,71.6,89,29.77,6.2,South,11.5,-,N/A,Rain,Light Rain Showers,180,2013-03-12 11:00:00
9:30 PM,73.4,71.6,94,29.77,3.7,SSE,12.7,-,N/A,Rain,Light Rain Showers,150,2013-03-12 11:30:00
9:47 PM,75.2,71.6,89,29.77,6.2,South,10.4,-,N/A,,Mostly Cloudy,180,2013-03-12 11:47:00
10:00 PM,75,70,80,29.78,,South,12.7,,,,,190,2013-03-12 12:00:00
10:00 PM,75.2,69.8,83,29.77,6.2,South,12.7,-,N/A,,Mostly Cloudy,190,2013-03-12 12:00:00
10:30 PM,75.2,71.6,89,29.77,6.2,South,12.7,-,N/A,,Mostly Cloudy,170,2013-03-12 12:30:00
11:00 PM,77.0,71.6,83,29.74,6.2,South,11.5,-,N/A,,Mostly Cloudy,170,2013-03-12 13:00:00
11:30 PM,75.2,71.6,89,29.74,6.2,South,15.0,-,N/A,,Mostly Cloudy,190,2013-03-12 13:30:00